Yuma MCAS, AZ

12:41 PM MST on November 17, 2019 (GMT -0700)
Yuma Marine Corps Air Station

Weather History for KNYL - October, 2019

Change the Weather History Date:

Monday, October 21, 2019

  Actual Average Record
Temperature  
Mean Temperature 77 °F 76 °F  
Max Temperature 89 °F 88 °F 104 °F (2003)
Min Temperature 65 °F 63 °F 42 °F (1920)
Degree Days  
Heating Degree Days 0 0  
Month to date heating degree days 0 0  
Since 1 July heating degree days 0 0  
Cooling Degree Days 12 11  
Month to date cooling degree days 279 302  
Year to date cooling degree days 4270 4476  
Growing Degree Days 27 (Base 50)    
Moisture  
Dew Point 20 °F    
Average Humidity 13    
Maximum Humidity 19    
Minimum Humidity 6    
Precipitation  
Precipitation 0.00 in 0.00 in 0.34 in (1978)
Month to date precipitation 0.00 0.15  
Year to date precipitation 1.49 2.77  
Sea Level Pressure  
Sea Level Pressure 29.98 in    
Wind  
Wind Speed 10 mph (North)    
Max Wind Speed 21 mph    
Max Gust Speed 26 mph    
Visibility 8 miles    
Events      
T = Trace of Precipitation, MM = Missing Value Source: NWS Daily Summary

Daily Weather History Graph

Daily Weather History Graph

Search for Another Location

Airport or City:

Astronomy

Oct. 21, 2019 Rise Set
Actual Time 6:46 AM MST 5:58 PM MST
Civil Twilight 6:21 AM MST 6:23 PM MST
Nautical Twilight 5:53 AM MST 6:52 PM MST
Astronomical Twilight 5:24 AM MST 7:20 PM MST
Moon No Moon Rise 1:57 PM MST (10/21)
Length of Visible Light 12h 01m
Length of Day
11h 11m
Waning Gibbous, 47% of the Moon is Illuminated
Oct 21
Waning Gibbous
Oct 27
New
Nov 4
First Quarter
Nov 12
Full
Nov 19
Last Quarter

Hourly Weather History & Observations

Time (MST) Temp. Dew Point Humidity Pressure Visibility Wind Dir Wind Speed Gust Speed Precip Events Conditions
12:57 AM 72.0 °F 19.0 °F 13% 29.93 in 10.0 mi North 3.5 mph - N/A   Clear
1:57 AM 69.1 °F 19.0 °F 15% 29.93 in 10.0 mi North 6.9 mph - N/A   Clear
2:57 AM 72.0 °F 16.0 °F 12% 29.93 in 10.0 mi NNW 10.4 mph - N/A   Clear
3:57 AM 68.0 °F 19.0 °F 15% 29.93 in 10.0 mi West 4.6 mph - N/A   Clear
4:57 AM 66.9 °F 18.0 °F 15% 29.94 in 10.0 mi NNW 9.2 mph - N/A   Clear
5:57 AM 68.0 °F 16.0 °F 14% 29.96 in 10.0 mi North 10.4 mph - N/A   Clear
6:57 AM 66.9 °F 15.1 °F 14% 29.98 in 7.0 mi NNW 8.1 mph - N/A   Partly Cloudy
7:57 AM 71.1 °F 18.0 °F 13% 30.00 in 7.0 mi North 5.8 mph - N/A   Partly Cloudy
8:57 AM 75.9 °F 15.1 °F 10% 30.03 in 7.0 mi North 13.8 mph - N/A   Partly Cloudy
9:57 AM 81.0 °F 14.0 °F 8% 30.02 in 7.0 mi North 13.8 mph - N/A   Partly Cloudy
10:57 AM 84.0 °F 12.9 °F 7% 30.03 in 7.0 mi North 13.8 mph 25.3 mph N/A   Partly Cloudy
11:57 AM 86.0 °F 12.9 °F 7% 30.03 in 7.0 mi North 15.0 mph - N/A   Partly Cloudy
12:57 PM 88.0 °F 16.0 °F 7% 30.01 in 7.0 mi North 16.1 mph 20.7 mph N/A   Partly Cloudy
1:57 PM 88.0 °F 19.9 °F 8% 29.98 in 7.0 mi North 15.0 mph - N/A   Partly Cloudy
2:57 PM 88.0 °F 19.9 °F 8% 29.97 in 7.0 mi North 15.0 mph - N/A   Partly Cloudy
3:57 PM 88.0 °F 21.0 °F 9% 29.97 in 7.0 mi North 15.0 mph 23.0 mph N/A   Clear
4:57 PM 88.0 °F 21.9 °F 9% 29.96 in 7.0 mi North 12.7 mph 18.4 mph N/A   Clear
5:57 PM 84.0 °F 23.0 °F 11% 29.97 in 7.0 mi North 5.8 mph - N/A   Clear
6:57 PM 82.0 °F 23.0 °F 11% 29.98 in 7.0 mi North 6.9 mph - N/A   Clear
7:57 PM 80.1 °F 24.1 °F 13% 30.00 in 7.0 mi North 5.8 mph - N/A   Clear
8:57 PM 75.9 °F 27.0 °F 16% 30.00 in 7.0 mi NW 8.1 mph - N/A   Clear
9:57 PM 75.9 °F 30.0 °F 19% 30.01 in 7.0 mi NW 6.9 mph - N/A   Clear
10:57 PM 75.0 °F 30.9 °F 20% 30.02 in 7.0 mi NNW 3.5 mph - N/A   Clear
11:57 PM 77.0 °F 26.1 °F 15% 30.02 in 10.0 mi NNW 9.2 mph - N/A   Clear